GW0254 Weather Reports


Display with metric or nautical units.
time (UTC)temp
F
wind
direction
speed
MPH
gust
MPH
rain 1hr
in
rain 24hr
in
rain mn
in
humidity
%
barometer
mb
20260506212528 62 150 2.0 7.0 0.00 0.01 0.01 39 1024.3
20260506212028 63 175 2.0 7.0 0.00 0.01 0.01 43 1024.3
20260506211544 63 186 4.0 7.0 0.00 0.01 0.01 44 1024.4
20260506211026 62 193 3.0 6.0 0.00 0.01 0.01 46 1024.4
20260506210527 61 197 2.0 7.0 0.00 0.01 0.01 50 1024.4
20260506210047 61 186 2.0 7.0 0.00 0.01 0.01 49 1024.4
20260506205527 61 185 3.0 7.0 0.00 0.01 0.01 49 1024.5
20260506205027 62 175 3.0 7.0 0.00 0.01 0.01 45 1024.6
20260506204541 62 185 3.0 6.0 0.00 0.01 0.01 45 1024.6
20260506204027 61 188 3.0 6.0 0.00 0.01 0.01 45 1024.5
20260506203529 61 187 2.0 7.0 0.00 0.01 0.01 50 1024.5
20260506203040 61 169 3.0 7.0 0.00 0.01 0.01 48 1024.5
20260506202528 61 187 2.0 6.0 0.00 0.01 0.01 51 1024.5
20260506202025 61 180 2.0 6.0 0.00 0.01 0.01 53 1024.5
20260506201545 60 181 3.0 6.0 0.00 0.01 0.01 53 1024.6
20260506201027 61 169 4.0 6.0 0.00 0.01 0.01 55 1024.6
20260506200526 61 178 2.0 6.0 0.00 0.01 0.01 54 1024.6
20260506200047 60 184 2.0 4.0 0.00 0.01 0.01 56 1024.6
20260506195527 59 181 1.0 5.0 0.00 0.01 0.01 57 1024.6
20260506195029 58 181 1.0 7.0 0.00 0.01 0.01 62 1024.6
20260506194547 58 181 3.0 8.0 0.00 0.01 0.01 60 1024.7
20260506194027 57 174 3.0 8.0 0.00 0.01 0.01 63 1024.8
20260506193527 57 163 4.0 8.0 0.00 0.01 0.01 63 1024.7
20260506193042 57 167 2.0 6.0 0.00 0.01 0.01 65 1024.6
20260506192525 57 178 2.0 6.0 0.00 0.01 0.01 64 1024.7
20260506192027 57 173 2.0 6.0 0.00 0.01 0.01 63 1024.7
20260506191548 57 189 3.0 7.0 0.00 0.01 0.01 63 1024.7
20260506191025 58 196 3.0 7.0 0.00 0.01 0.01 60 1024.7
20260506190525 58 176 3.0 6.0 0.00 0.01 0.01 55 1024.7
20260506190047 58 192 2.0 6.0 0.00 0.01 0.01 61 1024.6
20260506185525 58 193 3.0 6.0 0.00 0.01 0.01 59 1024.6
20260506185025 58 169 2.0 6.0 0.00 0.01 0.01 58 1024.6
20260506184542 59 164 2.0 6.0 0.00 0.01 0.01 55 1024.7
20260506184027 58 181 2.0 6.0 0.00 0.01 0.01 59 1024.6
20260506183527 57 179 1.0 5.0 0.00 0.01 0.01 58 1024.7
20260506183043 57 180 2.0 5.0 0.00 0.01 0.01 56 1024.6
20260506182525 57 180 2.0 5.0 0.00 0.01 0.01 58 1024.6
20260506182026 57 180 1.0 7.0 0.00 0.01 0.01 59 1024.7
20260506181545 57 177 2.0 7.0 0.00 0.01 0.01 61 1024.5
20260506181027 56 192 2.0 7.0 0.00 0.01 0.01 63 1024.6
20260506180525 56 198 3.0 7.0 0.00 0.01 0.01 62 1024.5
20260506180042 56 184 3.0 6.0 0.00 0.01 0.01 64 1024.5
20260506175526 55 186 2.0 6.0 0.00 0.02 0.01 65 1024.4
20260506175024 55 142 2.0 6.0 0.00 0.02 0.01 65 1024.5
20260506174547 54 190 4.0 6.0 0.00 0.02 0.01 69 1024.4
20260506174027 55 184 0.0 0.0 0.00 0.02 0.01 68 1024.4
20260506173528 54 0 0.0 0.0 0.00 0.02 0.01 72 1024.4
20260506173104 54 0 0.0 0.0 0.00 0.02 0.01 70 1024.4
20260506172527 54 0 0.0 0.0 0.00 0.02 0.01 72 1024.4
20260506172025 54 0 0.0 0.0 0.00 0.02 0.01 71 1024.3
20260506171550 54 0 0.0 0.0 0.00 0.02 0.01 71 1024.3
20260506171027 53 0 0.0 0.0 0.00 0.02 0.01 73 1024.3
20260506170526 53 0 0.0 0.0 0.00 0.02 0.01 73 1024.2
20260506170042 52 0 0.0 0.0 0.00 0.02 0.01 75 1024.4
20260506165525 52 0 0.0 0.0 0.00 0.06 0.01 76 1024.3
20260506165025 52 0 0.0 0.0 0.00 0.06 0.01 75 1024.4
20260506164558 51 0 0.0 0.0 0.00 0.06 0.01 78 1024.4
20260506164024 50 0 0.0 0.0 0.00 0.06 0.01 80 1024.2
20260506163525 50 0 0.0 0.0 0.00 0.06 0.01 80 1024.3
20260506163045 49 0 0.0 0.0 0.00 0.06 0.01 81 1024.3
20260506162528 49 0 0.0 0.0 0.00 0.06 0.01 83 1024.3
20260506162027 48 0 0.0 0.0 0.00 0.06 0.01 83 1024.2
20260506161548 48 0 0.0 0.0 0.00 0.06 0.01 83 1024.2
20260506161030 49 0 0.0 0.0 0.00 0.06 0.01 83 1024.2
20260506160528 48 0 0.0 0.0 0.00 0.06 0.01 83 1024.2
20260506160059 48 0 0.0 0.0 0.00 0.06 0.01 83 1024.2
20260506155525 49 0 0.0 0.0 0.00 0.09 0.01 83 1024.1
20260506155025 49 0 0.0 0.0 0.00 0.09 0.01 81 1024.1
20260506154550 50 0 0.0 0.0 0.00 0.09 0.01 81 1024.1
20260506154025 50 0 0.0 0.0 0.00 0.09 0.01 81 1024.0
20260506153526 49 0 0.0 0.0 0.00 0.09 0.01 82 1024.0
20260506153040 49 0 0.0 0.0 0.00 0.09 0.01 81 1024.0
20260506152525 49 0 0.0 0.0 0.00 0.09 0.01 81 1023.9
20260506152026 49 0 0.0 0.0 0.00 0.09 0.01 82 1023.9
20260506151545 49 0 0.0 0.0 0.00 0.09 0.01 81 1023.9
20260506151025 49 0 0.0 0.0 0.00 0.09 0.01 81 1023.7
20260506150525 49 0 0.0 0.0 0.00 0.09 0.01 81 1023.7
20260506150045 49 0 0.0 0.0 0.00 0.09 0.01 81 1023.7
20260506145527 49 0 0.0 0.0 0.00 0.12 0.01 82 1023.7
20260506145025 48 0 0.0 0.0 0.00 0.12 0.01 83 1023.7
20260506144544 48 0 0.0 0.0 0.00 0.12 0.01 84 1023.7
20260506144027 48 0 0.0 0.0 0.00 0.12 0.01 84 1023.5
20260506143527 47 0 0.0 0.0 0.00 0.12 0.01 84 1023.5
20260506143040 47 0 0.0 0.0 0.00 0.12 0.01 85 1023.3
20260506142528 47 0 0.0 0.0 0.00 0.12 0.01 85 1023.4
20260506142024 47 0 0.0 0.0 0.00 0.12 0.01 85 1023.3
20260506141603 47 0 0.0 0.0 0.00 0.12 0.01 86 1023.2
20260506141025 46 0 0.0 0.0 0.00 0.12 0.01 89 1023.1
20260506140525 45 0 0.0 0.0 0.00 0.12 0.01 91 1023.1
20260506140045 44 0 0.0 0.0 0.00 0.12 0.01 92 1023.1
20260506135524 43 0 0.0 0.0 0.00 0.14 0.01 92 1022.9
20260506135027 42 0 0.0 2.0 0.01 0.14 0.01 92 1022.9
20260506134548 42 0 0.0 2.0 0.01 0.14 0.01 92 1022.8
20260506134027 42 183 1.0 2.0 0.01 0.14 0.01 92 1022.7
20260506133528 41 0 0.0 0.0 0.01 0.14 0.01 93 1022.7
20260506133041 41 0 0.0 0.0 0.01 0.14 0.01 93 1022.7
20260506132525 41 0 0.0 0.0 0.01 0.14 0.01 93 1022.6
20260506132025 41 0 0.0 0.0 0.01 0.14 0.01 93 1022.5
20260506131540 41 0 0.0 0.0 0.01 0.14 0.01 93 1022.4
20260506131025 41 0 0.0 0.0 0.01 0.14 0.01 93 1022.4
20260506130526 41 0 0.0 0.0 0.01 0.14 0.01 93 1022.4
20260506130040 41 0 0.0 0.0 0.01 0.14 0.01 93 1022.3
20260506125524 41 0 0.0 0.0 0.01 0.16 0.01 92 1022.2
20260506125027 42 0 0.0 0.0 0.00 0.15 0.00 92 1022.1
20260506124546 42 0 0.0 0.0 0.00 0.15 0.00 92 1022.1
20260506124025 42 0 0.0 0.0 0.00 0.15 0.00 92 1022.0
20260506123525 42 0 0.0 0.0 0.00 0.15 0.00 92 1022.0
20260506123046 42 0 0.0 0.0 0.00 0.15 0.00 92 1022.0
20260506122526 42 0 0.0 0.0 0.00 0.15 0.00 92 1021.9
20260506122025 42 0 0.0 0.0 0.00 0.15 0.00 92 1021.7
20260506121548 42 0 0.0 0.0 0.00 0.15 0.00 91 1021.8
20260506121026 42 0 0.0 0.0 0.00 0.15 0.00 91 1021.6
20260506120525 43 0 0.0 0.0 0.00 0.15 0.00 91 1021.6
20260506120118 43 0 0.0 0.0 0.00 0.15 0.00 91 1021.6
20260506115524 43 0 0.0 0.0 0.00 0.17 0.00 91 1021.5
20260506115025 43 0 0.0 0.0 0.00 0.17 0.00 91 1021.4
20260506114543 43 0 0.0 0.0 0.00 0.17 0.00 90 1021.4
20260506114024 43 0 0.0 0.0 0.00 0.17 0.00 91 1021.3
20260506113526 43 0 0.0 0.0 0.00 0.17 0.00 91 1021.3
20260506113043 43 0 0.0 0.0 0.00 0.17 0.00 90 1021.2
20260506112526 43 0 0.0 0.0 0.00 0.17 0.00 90 1021.2
20260506112025 43 0 0.0 0.0 0.00 0.17 0.00 90 1021.0
20260506111541 43 0 0.0 0.0 0.00 0.17 0.00 89 1021.1
20260506111025 44 0 0.0 0.0 0.00 0.17 0.00 89 1021.0
20260506110525 44 0 0.0 0.0 0.00 0.17 0.00 90 1020.9
20260506110041 44 0 0.0 0.0 0.00 0.17 0.00 90 1020.9
20260506105525 44 0 0.0 0.0 0.00 0.18 0.00 90 1020.8
20260506105024 44 0 0.0 0.0 0.00 0.18 0.00 89 1020.7
20260506104548 44 0 0.0 0.0 0.00 0.18 0.00 89 1020.7
20260506104025 44 0 0.0 0.0 0.00 0.18 0.00 89 1020.7
20260506103525 44 0 0.0 0.0 0.00 0.18 0.00 89 1020.6
20260506103046 44 0 0.0 0.0 0.00 0.18 0.00 89 1020.5
20260506102525 44 0 0.0 0.0 0.00 0.18 0.00 89 1020.5
20260506102028 44 0 0.0 0.0 0.00 0.18 0.00 89 1020.3
20260506101548 44 0 0.0 0.0 0.00 0.18 0.00 88 1020.4
20260506101026 44 0 0.0 0.0 0.00 0.18 0.00 88 1020.3
20260506100525 44 0 0.0 0.0 0.00 0.18 0.00 88 1020.4
20260506100043 44 0 0.0 0.0 0.00 0.18 0.00 88 1020.2
20260506095526 44 0 0.0 0.0 0.00 0.20 0.00 88 1020.2
20260506095025 45 0 0.0 0.0 0.00 0.20 0.00 87 1020.2
20260506094545 45 0 0.0 0.0 0.00 0.20 0.00 87 1020.2
20260506094025 45 0 0.0 0.0 0.00 0.20 0.00 86 1020.2
20260506093526 45 0 0.0 0.0 0.00 0.20 0.00 86 1020.1
20260506093046 45 0 0.0 2.0 0.00 0.20 0.00 86 1020.2
20260506092525 45 0 0.0 2.0 0.00 0.20 0.00 85 1020.2
20260506092025 45 0 1.0 2.0 0.00 0.20 0.00 85 1020.1
20260506091545 45 0 0.0 2.0 0.00 0.20 0.00 85 1020.1
20260506091027 45 183 1.0 2.0 0.00 0.20 0.00 85 1020.0
20260506090526 45 0 0.0 0.0 0.00 0.20 0.00 85 1020.0
20260506090044 45 0 0.0 3.0 0.00 0.20 0.00 85 1020.0
20260506085525 45 0 0.0 3.0 0.00 0.23 0.00 85 1020.0
20260506085025 45 0 0.0 3.0 0.00 0.23 0.00 85 1019.9
20260506084541 44 0 0.0 0.0 0.00 0.23 0.00 86 1019.9
20260506084026 44 0 0.0 2.0 0.00 0.23 0.00 85 1019.9
20260506083528 44 0 0.0 3.0 0.00 0.23 0.00 86 1019.9
20260506083044 44 183 2.0 3.0 0.00 0.23 0.00 86 1019.9
20260506082525 44 0 0.0 0.0 0.00 0.23 0.00 86 1019.9
20260506082024 44 0 0.0 0.0 0.00 0.23 0.00 86 1019.9
20260506081550 44 0 0.0 0.0 0.00 0.23 0.00 86 1019.9
20260506081025 44 0 0.0 0.0 0.00 0.23 0.00 86 1019.9
20260506080528 44 0 0.0 0.0 0.00 0.23 0.00 86 1019.8
20260506073524 45 0 0.0 0.0 0.00 0.27 0.00 84 1019.8
20260506073043 45 0 0.0 0.0 0.00 0.27 0.00 83 1019.6
20260506072524 45 0 0.0 0.0 0.00 0.27 0.00 83 1019.6
20260506072025 45 0 0.0 0.0 0.00 0.27 0.00 83 1019.6
20260506071548 45 0 0.0 0.0 0.00 0.27 0.00 84 1019.5
20260506071026 45 0 0.0 1.0 0.00 0.27 0.00 83 1019.4
20260506070525 45 0 0.0 3.0 0.00 0.27 0.00 83 1019.3
20260506062024 46 0 0.0 1.0 0.00 0.29 0.27 81 1018.9
20260506061542 45 0 0.0 2.0 0.00 0.29 0.27 82 1018.9
20260506061026 45 183 0.0 2.0 0.00 0.29 0.27 82 1018.8
20260506060524 45 0 0.0 3.0 0.00 0.29 0.27 83 1018.7
20260506051024 47 0 0.0 0.0 0.00 0.30 0.27 81 1018.4
20260506050524 47 0 0.0 0.0 0.00 0.30 0.27 80 1018.3
20260506045026 47 0 0.0 0.0 0.00 0.32 0.27 80 1018.2
20260506044552 47 0 0.0 0.0 0.00 0.32 0.27 81 1018.2
20260506044027 47 0 0.0 0.0 0.00 0.32 0.27 79 1018.2
20260506043530 47 0 0.0 0.0 0.00 0.32 0.27 80 1018.0
20260506043038 47 0 0.0 0.0 0.00 0.32 0.27 82 1018.0
20260506042527 47 0 0.0 0.0 0.00 0.32 0.27 83 1018.0
20260506042024 46 0 0.0 0.0 0.00 0.32 0.27 83 1017.9
20260506041552 46 0 0.0 0.0 0.00 0.32 0.27 83 1017.8
20260506041025 46 0 0.0 0.0 0.00 0.32 0.27 83 1017.8
20260506040526 46 0 0.0 0.0 0.00 0.32 0.27 82 1017.6
20260506040046 46 0 0.0 0.0 0.00 0.32 0.27 84 1017.6
20260506035527 47 0 0.0 0.0 0.00 0.35 0.27 84 1017.4
20260506035026 47 0 0.0 1.0 0.00 0.35 0.27 84 1017.4
20260506034542 47 0 0.0 2.0 0.00 0.35 0.27 84 1017.3
20260506034046 47 0 0.0 3.0 0.00 0.35 0.27 83 1017.1
20260506033525 47 183 1.0 3.0 0.00 0.35 0.27 83 1017.1
20260506033043 47 183 0.0 3.0 0.00 0.35 0.27 83 1017.1
20260506032525 48 183 0.0 2.0 0.00 0.35 0.27 83 1017.0
20260506032025 48 183 0.0 2.0 0.00 0.35 0.27 82 1017.0
20260506031554 48 183 1.0 2.0 0.00 0.35 0.27 84 1017.0
20260506031025 48 0 0.0 2.0 0.00 0.35 0.27 84 1016.9
20260506030526 48 183 0.0 2.0 0.00 0.35 0.27 84 1016.9
20260506030058 48 0 0.0 2.0 0.00 0.35 0.27 84 1016.7
20260506025528 48 0 0.0 2.0 0.00 0.43 0.27 84 1016.7
20260506025025 48 0 0.0 2.0 0.00 0.43 0.27 84 1016.6
20260506024545 47 0 1.0 2.0 0.00 0.43 0.27 83 1016.5
20260506024025 47 0 0.0 2.0 0.00 0.43 0.27 85 1016.5
20260506023525 47 0 0.0 2.0 0.00 0.43 0.27 85 1016.6
20260506023042 47 183 0.0 2.0 0.00 0.43 0.27 84 1016.4
20260506022525 47 0 0.0 0.0 0.00 0.43 0.27 83 1016.3
20260506022025 47 0 0.0 0.0 0.00 0.43 0.27 82 1016.4
20260506021540 48 0 0.0 0.0 0.00 0.43 0.27 81 1016.3
20260506021025 48 0 0.0 0.0 0.00 0.43 0.27 80 1016.3
20260506020528 48 0 0.0 0.0 0.00 0.43 0.27 79 1016.3
20260506020046 49 0 0.0 0.0 0.00 0.43 0.27 79 1016.2
20260506015526 49 0 0.0 1.0 0.00 0.54 0.27 78 1016.1
20260506015026 49 0 0.0 2.0 0.00 0.54 0.27 78 1016.2
20260506014543 49 0 0.0 3.0 0.00 0.54 0.27 77 1016.1
20260506014024 49 0 0.0 3.0 0.00 0.54 0.27 77 1016.1
20260506013525 49 183 1.0 3.0 0.00 0.54 0.27 77 1015.9
20260506013050 49 183 0.0 2.0 0.00 0.54 0.27 77 1015.9
20260506012526 49 0 0.0 2.0 0.00 0.54 0.27 77 1016.0
20260506012027 49 0 1.0 2.0 0.00 0.54 0.27 77 1015.8
20260506011540 49 0 0.0 4.0 0.00 0.54 0.27 76 1015.8
20260506011027 49 183 1.0 4.0 0.00 0.54 0.27 76 1015.8
20260506010526 49 183 1.0 4.0 0.00 0.54 0.27 76 1015.8
20260506010039 49 0 1.0 3.0 0.00 0.54 0.27 76 1015.7
20260506005526 49 183 1.0 4.0 0.00 0.62 0.27 77 1015.7
20260506005027 49 183 0.0 4.0 0.00 0.62 0.27 78 1015.7
20260506004620 49 183 2.0 4.0 0.00 0.62 0.27 77 1015.7
20260506004024 49 0 1.0 4.0 0.00 0.62 0.27 76 1015.7
20260506003525 49 183 1.0 4.0 0.00 0.62 0.27 76 1015.7
20260506003045 49 183 0.0 4.0 0.00 0.62 0.27 76 1015.7
20260506002525 49 0 0.0 4.0 0.00 0.62 0.27 75 1015.7
20260506002025 50 183 2.0 4.0 0.00 0.62 0.27 74 1015.7
20260506001544 50 0 1.0 4.0 0.00 0.62 0.27 74 1015.8
20260506001025 51 183 1.0 4.0 0.00 0.62 0.27 72 1015.8
20260506000526 52 0 1.0 4.0 0.00 0.62 0.27 72 1015.7
20260506000047 51 183 0.0 4.0 0.00 0.62 0.27 73 1015.6
20260505235526 51 183 2.0 5.0 0.00 0.76 0.27 72 1015.5
20260505235027 51 183 2.0 6.0 0.00 0.76 0.27 71 1015.6
20260505234606 51 183 3.0 6.0 0.00 0.76 0.27 71 1015.6
20260505234025 52 182 1.0 7.0 0.00 0.76 0.27 70 1015.6
20260505233525 52 182 2.0 7.0 0.00 0.76 0.27 70 1015.6
20260505233045 52 186 1.0 5.0 0.00 0.76 0.27 72 1015.6
20260505232526 52 182 2.0 7.0 0.00 0.76 0.27 70 1015.6
20260505232026 52 184 2.0 7.0 0.00 0.76 0.27 70 1015.7
20260505231546 52 185 2.0 7.0 0.00 0.76 0.27 73 1015.7
20260505231025 51 186 1.0 7.0 0.00 0.76 0.27 74 1015.8
20260505230525 51 183 3.0 6.0 0.00 0.76 0.27 73 1015.7
20260505230047 51 183 1.0 7.0 0.00 0.76 0.27 73 1015.8
20260505225527 51 194 3.0 7.0 0.00 0.81 0.27 73 1015.8
20260505225024 51 161 2.0 7.0 0.00 0.81 0.27 73 1015.8
20260505224546 51 173 3.0 7.0 0.00 0.81 0.27 72 1015.8
20260505224025 51 112 3.0 6.0 0.00 0.81 0.27 71 1015.8
20260505223525 51 165 0.0 6.0 0.00 0.81 0.27 73 1015.8
20260505223052 51 167 3.0 6.0 0.00 0.81 0.27 72 1015.8
20260505222525 51 156 2.0 6.0 0.00 0.81 0.27 73 1015.8
20260505222027 51 157 4.0 6.0 0.00 0.81 0.27 71 1015.8
20260505221558 52 183 1.0 7.0 0.00 0.81 0.27 72 1015.8
20260505221026 52 186 3.0 7.0 0.00 0.81 0.27 72 1015.8
20260505220525 52 162 3.0 7.0 0.00 0.81 0.27 73 1015.7
20260505220050 52 194 2.0 6.0 0.00 0.81 0.27 73 1015.8
20260505215526 52 193 3.0 6.0 0.00 0.81 0.27 72 1015.9
20260505215025 52 190 3.0 8.0 0.00 0.81 0.27 73 1015.8
20260505214547 51 159 3.0 8.0 0.00 0.81 0.27 74 1015.9
20260505214026 52 182 2.0 7.0 0.00 0.81 0.27 75 1015.9
20260505213525 52 186 3.0 7.0 0.00 0.81 0.27 71 1015.8
20260505213041 52 155 3.0 7.0 0.00 0.81 0.27 75 1016.0